www.pogodaiklimat.ru

Погода и климат >> Архив погоды >> Норвегия >> Маяк Svinoy


ПОГОДА на Маяке Svinoy

  • Прогноз погоды на Маяке Svinoy
  • Монитор погоды на Маяке Svinoy

АРХИВ ПОГОДЫ на Маяке Svinoy

Время (UTC), дата Ветер
(напр.,м/с)
 
Видим.   Явления Облачность Т
(С)
Тd
(С)
f
(%)
Тe
(С)
Тes
(С)
Комфортность P
(гПа)
Po
(гПа)
Тmin
(С)
Tmax
(С)
R
(мм)
R24
(мм)
S
(см)
07 16.02 ЮВ 5-7
{7}
н/о н/о +1.6 +1.0 96 -4 -4 1007.3 1002.7
08 16.02 ЮВ 5-6
{7}
н/о н/о +2.0 +1.6 97 -4 -4 1007.7 1003.1
09 16.02 ЮВ 4-6
{7}
н/о н/о +2.5 +1.9 96 -3 -3 1008.5 1003.9
10 16.02 ЮВ 3-3
{5}
н/о н/о +3.2 +2.2 93 -1 -1 1009.2 1004.6
11 16.02 ЮВ 2-2
{3}
н/о н/о +3.5 +2.2 91 0 0 1009.9 1005.3
12 16.02 С 1-1
{7}
н/о н/о +3.8 +2.2 89 +2 +2 1011.3 1006.7
13 16.02 СЗ 2-2
{2}
н/о н/о +4.7 +2.6 86 +2 +2 1012.2 1007.6
14 16.02 С 2-3
{3}
н/о н/о +4.9 +2.1 82 +2 +2 1013.0 1008.4
15 16.02 ЮВ 2-3
{3}
н/о н/о +4.7 +2.1 83 +2 +2 1013.3 1008.7
16 16.02 СВ 2-3
{3}
н/о н/о +4.6 +1.6 81 +2 +2 1013.5 1008.9
17 16.02 СВ 5-6
{6}
н/о н/о +4.8 -1.6 63 +1 +1 1013.7 1009.1
18 16.02 СВ 6-6
{7}
н/о н/о +4.8 -0.8 67 -0 -0 1014.1 1009.5 +1.5 +5.1
19 16.02 СВ 6-7
{7}
н/о н/о +4.8 -1.2 65 0 0 1013.7 1009.1
20 16.02 В 6-6
{7}
н/о н/о +4.5 +0.7 76 -1 -1 1013.8 1009.2
21 16.02 В 4-5
{7}
н/о н/о +3.9 +0.6 79 -0 -0 1014.6 1010.0
22 16.02 В 4-5
{6}
н/о н/о +3.8 +0.3 78 -1 -1 1014.6 1010.0
23 16.02 В 5-6
{7}
н/о н/о +3.7 +0.9 82 -1 -1 1014.8 1010.2
00 17.02 В 6-7
{7}
н/о н/о +3.5 +0.9 83 -2 -2 1014.4 1009.8
01 17.02 ЮВ 5-6
{6}
н/о н/о +3.1 +0.8 85 -2 -2 1014.7 1010.1
02 17.02 ЮВ 4-6
{6}
н/о н/о +3.1 +0.8 85 -2 -2 1014.3 1009.7
03 17.02 ЮВ 6-7
{7}
н/о н/о +3.0 +0.2 82 -3 -3 1013.7 1009.1
04 17.02 ЮВ 6-7
{7}
н/о н/о +3.2 +0.3 81 -2 -2 1013.0 1008.4
05 17.02 ЮВ 6-7
{7}
н/о н/о +3.2 +0.3 81 -2 -2 1012.2 1007.6
06 17.02 ЮВ 6-7
{7}
н/о н/о +3.5 -0.1 77 -2 -2 1011.8 1007.2 +2.9 +4.9
07 17.02 ЮВ 5-7
{7}
н/о н/о +3.7 +0.6 80 -1 -1 1011.4 1006.8
08 17.02 ЮВ 5-6
{7}
н/о н/о +4.1 +1.3 82 -1 -1 1011.1 1006.5
09 17.02 ЮВ 5-6
{6}
н/о н/о +4.8 +1.8 81 0 0 1010.7 1006.1
10 17.02 ЮВ 5-6
{7}
н/о н/о +5.8 +2.5 79 +1 +1 1010.4 1005.8
11 17.02 ЮВ 5-7
{8}
н/о н/о +6.5 +3.3 80 +2 +2 1009.6 1005.0
12 17.02 ЮВ 4-5
{8}
н/о н/о +7.2 +3.1 75 +4 +4 1008.4 1003.9
13 17.02 Ю 7-9
{9}
н/о н/о +7.6 +3.5 75 +3 +3 1007.2 1002.7
14 17.02 Ю 8-12
{12}
н/о н/о +8.4 +4.2 75 +4 +4 1006.6 1002.1
15 17.02 Ю 8-12
{12}
н/о н/о +9.3 +5.7 78 +5 +5 1005.5 1001.0
16 17.02 Ю 13-17
{17}
н/о н/о +10.1 +5.5 73 +5 +5 1004.5 1000.0
17 17.02 Ю 10-13
{17}
н/о н/о +9.7 +5.3 74 +5 +5 1003.9 999.4
18 17.02 Ю 9-11
{17}
н/о н/о +10.1 +4.7 69 +6 +6 1003.3 998.8 +3.4 +10.6
19 17.02 Ю 9-11
{12}
н/о н/о +9.9 +3.7 65 +6 +6 1003.1 998.6
20 17.02 Ю 9-12
{15}
н/о н/о +10.2 +2.8 60 +6 +6 1002.5 998.0
21 17.02 Ю 14-19
{19}
н/о н/о +11.1 +3.2 58 +7 +7 1001.9 997.5
22 17.02 ЮЗ 14-18
{22}
н/о н/о +9.7 +4.1 68 +5 +5 1001.7 997.2
23 17.02 Ю 15-21
{24}
н/о н/о +10.0 +3.3 63 +5 +5 1001.5 997.0
00 18.02 Ю 15-22
{24}
н/о н/о +7.9 +4.5 79 +2 +2 1002.4 997.9
01 18.02 Ю 13-17
{23}
н/о н/о +8.2 +4.8 79 +2 +2 1002.3 997.8
02 18.02 ЮЗ 11-15
{20}
н/о н/о +7.9 +4.5 79 +2 +2 1002.3 997.8
03 18.02 Ю 11-15
{16}
н/о н/о +8.0 +4.2 77 +3 +3 1001.6 997.1
04 18.02 Ю 13-18
{18}
н/о н/о +8.2 +3.1 70 +3 +3 1000.8 996.3
05 18.02 ЮЗ 12-16
{18}
н/о н/о +8.0 +3.5 73 +2 +2 1000.4 995.9
06 18.02 Ю 13-18
{23}
н/о н/о +8.2 +2.9 69 +3 +3 999.8 995.3 +7.7 +11.2
07 18.02 ЮЗ 14-20
{22}
н/о н/о +8.3 +2.8 68 +3 +3 998.9 994.4
08 18.02 Ю 15-21
{22}
н/о н/о +8.3 +2.6 67 +2 +2 998.6 994.1
09 18.02 ЮЗ 12-15
{21}
н/о н/о +7.2 +4.0 80 +1 +1 998.8 994.3
10 18.02 ЮЗ 17-23
{23}
н/о н/о +7.9 +3.8 75 +1 +1 998.0 993.5
11 18.02 ЮЗ 16-21
{27}
н/о н/о +8.0 +3.3 72 +2 +2 997.4 992.9
12 18.02 ЮЗ 16-21
{27}
н/о н/о +7.7 +3.8 76 +1 +1 996.9 992.4
13 18.02 ЮЗ 14-22
{22}
н/о н/о +7.9 +3.4 73 +2 +2 995.9 991.4
14 18.02 ЮЗ 16-21
{24}
н/о н/о +7.8 +3.7 75 +1 +1 995.9 991.4
15 18.02 ЮЗ 15-20
{24}
н/о н/о +7.6 +3.7 76 +1 +1 995.1 990.6
16 18.02 ЮЗ 13-17
{20}
н/о н/о +7.8 +3.3 73 +2 +2 995.1 990.6
17 18.02 ЮЗ 16-25
{25}
н/о н/о +7.8 +2.1 67 +2 +2 994.3 989.8
18 18.02 ЮЗ 15-20
{25}
н/о н/о +7.6 +2.1 68 +1 +1 994.2 989.7 +7.0 +8.6
19 18.02 Ю 14-21
{22}
н/о н/о +7.4 +1.7 67 +1 +1 994.1 989.6
20 18.02 ЮЗ 13-17
{22}
н/о н/о +7.2 +2.5 72 +1 +1 993.5 989.0
21 18.02 ЮЗ 14-18
{19}
н/о н/о +6.5 +3.3 80 -0 -0 992.9 988.4
22 18.02 ЮЗ 14-18
{21}
н/о н/о +6.8 +1.7 70 0 0 992.0 987.5
23 18.02 ЮЗ 13-18
{19}
н/о н/о +7.1 +1.8 69 +1 +1 991.9 987.4
00 19.02 Ю 12-15
{22}
н/о н/о +6.7 +2.2 73 +1 +1 991.0 986.5
01 19.02 Ю 11-13
{16}
н/о н/о +6.8 +1.9 71 +1 +1 990.3 985.8
02 19.02 Ю 9-12
{15}
н/о н/о +6.5 +2.2 74 +1 +1 989.7 985.2
03 19.02 Ю 8-12
{13}
н/о н/о +6.6 +1.9 72 +2 +2 989.3 984.8
04 19.02 Ю 5-7
{10}
н/о н/о +6.3 +2.6 77 +2 +2 988.6 984.1
05 19.02 Ю 5-8
{8}
н/о н/о +6.1 +2.0 75 +2 +2 988.3 983.8
06 19.02 В 1-2
{16}
н/о н/о +5.3 +2.7 83 +4 +4 988.5 984.0 +5.3 +7.7
07 19.02 ЮЗ 3-4
{4}
н/о н/о +5.2 +3.1 86 +2 +2 989.5 985.0
08 19.02 З 11-14
{14}
н/о н/о +4.7 +4.0 95 -2 -2 990.7 986.2
09 19.02 З 12-13
{15}
н/о н/о +5.4 +1.7 77 -1 -1 991.6 987.1
10 19.02 З 12-14
{14}
н/о н/о +5.0 +1.7 79 -2 -2 992.4 987.9
11 19.02 З 10-13
{14}
н/о н/о +4.7 +2.1 83 -2 -2 993.3 988.8
12 19.02 З 11-15
{15}
н/о н/о +4.5 +2.5 87 -2 -2 994.4 989.9
13 19.02 ЮЗ 9-11
{12}
н/о н/о +4.8 +3.8 93 -2 -2 995.3 990.8
14 19.02 З 9-12
{13}
н/о н/о +5.2 +4.3 94 -1 -1 996.5 992.0
15 19.02 С 12-15
{15}
н/о н/о +5.6 +3.1 84 -1 -1 998.3 993.8
16 19.02 -15
{16}
н/о н/о +5.2 +1.7 78 1000.0 995.5
17 19.02 С 11-15
{17}
н/о н/о +4.9 +1.2 77 -2 -2 1001.7 997.2
18 19.02 С 10-13
{17}
н/о н/о +5.2 +1.0 74 -1 -1 1003.0 998.5 +4.2 +5.9
19 19.02 С 10-13
{13}
н/о н/о +5.3 +0.1 69 -1 -1 1004.1 999.6
20 19.02 -9
{12}
н/о н/о +5.2 -1.0 64 1005.1 1000.5
21 19.02 С 6-7
{9}
н/о н/о +5.4 -0.8 64 +1 +1 1005.9 1001.3
22 19.02 С 6-9
{9}
н/о н/о +5.4 -3.4 53 +1 +1 1006.3 1001.7
23 19.02 С 7-9
{9}
н/о н/о +5.1 +0.5 72 -0 -0 1006.9 1002.3
00 20.02 С 6-7
{13}
н/о н/о +5.1 +0.3 71 0 0 1007.8 1003.2
01 20.02 С 4-5
{7}
н/о н/о +5.2 -1.2 63 +2 +2 1008.1 1003.5
02 20.02 СВ 5-6
{6}
н/о н/о +4.9 -0.1 70 +1 +1 1008.4 1003.8
03 20.02 СВ 4-5
{7}
н/о н/о +4.6 +0.8 76 +1 +1 1008.4 1003.8
04 20.02 В 4-4
{5}
н/о н/о +4.5 +0.8 77 0 0 1008.7 1004.1
05 20.02 ЮВ 2-4
{4}
н/о н/о +4.3 +0.5 76 +2 +2 1009.1 1004.5
06 20.02 ЮВ 3-4
{7}
н/о н/о +4.4 +0.7 77 +1 +1 1009.2 1004.6 +4.2 +5.5
07 20.02 ЮВ 3-4
{5}
н/о н/о +4.1 +0.8 79 +1 +1 1009.4 1004.8
08 20.02 ЮВ 3-4
{4}
н/о н/о +4.3 +0.6 77 +1 +1 1009.6 1005.0
09 20.02 ЮВ 3-4
{5}
н/о н/о +4.1 +0.5 77 +1 +1 1010.1 1005.5
10 20.02 ЮВ 3-5
{5}
н/о н/о +4.4 -0.4 71 +1 +1 1010.2 1005.6
11 20.02 ЮВ 4-5
{5}
н/о н/о +4.7 +0.1 72 +1 +1 1010.4 1005.8
12 20.02 ЮВ 4-5
{7}
н/о н/о +4.7 -1.5 64 +1 +1 1010.2 1005.6
13 20.02 ЮВ 5-7
{7}
н/о н/о +4.9 -0.9 66 +1 +1 1009.7 1005.1
14 20.02 ЮВ 6-7
{7}
н/о н/о +4.8 -1.6 63 0 0 1009.5 1004.9
15 20.02 ЮВ 6-7
{8}
н/о н/о +4.8 -2.0 61 0 0 1008.8 1004.2
16 20.02 ЮВ 5-6
{7}
н/о н/о +4.8 -1.4 64 0 0 1008.2 1003.6
17 20.02 ЮВ 6-8
{8}
н/о н/о +3.6 +0.3 79 -2 -2 1007.5 1002.9
18 20.02 В 8-9
{10}
н/о н/о +3.4 +0.8 83 -3 -3 1006.5 1001.9 +3.2 +5.0
19 20.02 В 9-10
{12}
н/о н/о +3.9 +1.8 86 -3 -3 1005.5 1000.9
20 20.02 ЮВ 6-8
{11}
н/о н/о +4.0 +2.2 88 -2 -2 1004.9 1000.3
21 20.02 ЮВ 6-7
{7}
н/о н/о +4.3 +2.8 90 -1 -1 1004.4 999.8
22 20.02 ЮВ 5-6
{7}
н/о н/о +4.7 +3.4 91 -0 -0 1004.2 999.6
23 20.02 ЮВ 5-6
{7}
н/о н/о +4.9 +4.0 94 0 0 1003.9 999.3
00 21.02 ЮВ 5-8
{12}
н/о н/о +5.8 +4.6 92 +1 +1 1003.8 999.3
01 21.02 Ю 7-10
{10}
н/о н/о +6.6 +4.9 89 +2 +2 1004.1 999.6
02 21.02 ЮЗ 6-8
{11}
н/о н/о +6.9 +5.7 92 +2 +2 1004.8 1000.3
03 21.02 ЮЗ 7-9
{11}
н/о н/о +6.9 +6.2 95 +2 +2 1005.3 1000.8
04 21.02 ЮЗ 8-10
{11}
н/о н/о +7.0 +6.6 97 +2 +2 1005.7 1001.2
05 21.02 Ю 6-7
{9}
н/о н/о +6.6 +6.3 98 +2 +2 1006.4 1001.9
06 21.02 Ю 8-9
{11}
н/о н/о +6.2 +5.9 98 +1 +1 1006.8 1002.3 +3.4 +7.3
07 21.02 Ю 8-10
{10}
н/о н/о +6.4 +6.1 98 +1 +1 1007.8 1003.3
08 21.02 ЮЗ 13-15
{15}
н/о н/о +6.8 +6.5 98 0 0 1008.5 1004.0
09 21.02 ЮЗ 12-14
{15}
н/о н/о +6.7 +6.4 98 0 0 1009.8 1005.2
10 21.02 ЮЗ 11-13
{14}
н/о н/о +6.5 +6.2 98 0 0 1011.2 1006.6
11 21.02 ЮЗ 11-12
{14}
н/о н/о +6.5 +6.2 98 0 0 1012.4 1007.8
12 21.02 ЮЗ 10-12
{15}
н/о н/о +6.6 +6.3 98 +1 +1 1013.6 1009.0
13 21.02 ЮЗ 9-11
{11}
н/о н/о +6.5 +6.2 98 +1 +1 1014.9 1010.3
14 21.02 ЮЗ 10-12
{12}
н/о н/о +6.4 +6.1 98 0 0 1016.0 1011.4
15 21.02 ЮЗ 9-10
{12}
н/о н/о +6.3 +6.0 98 0 0 1017.0 1012.4
16 21.02 ЮЗ 12-14
{14}
н/о н/о +7.0 +5.2 88 +1 +1 1017.4 1012.8
17 21.02 ЮЗ 9-10
{14}
н/о н/о +7.0 +5.5 90 +2 +2 1018.7 1014.1
18 21.02 Ю 7-8
{14}
н/о н/о +7.0 +5.5 90 +2 +2 1019.6 1015.0 +6.0 +7.1
19 21.02 Ю 7-10
{10}
н/о н/о +7.1 +5.6 90 +2 +2 1020.0 1015.4
20 21.02 Ю 8-10
{10}
н/о н/о +6.7 +5.7 93 +1 +1 1020.8 1016.2
21 21.02 Ю 6-10
{11}
н/о н/о +6.9 +5.9 93 +2 +2 1021.2 1016.6
22 21.02 Ю 9-11
{11}
н/о н/о +7.9 +5.4 84 +3 +3 1021.7 1017.1
23 21.02 Ю 8-11
{11}
н/о н/о +7.7 +5.7 87 +3 +3 1022.7 1018.1
00 22.02 Ю 9-11
{11}
н/о н/о +7.9 +5.9 87 +3 +3 1023.4 1018.8
01 22.02 Ю 10-16
{16}
н/о н/о +8.9 +6.0 82 +4 +4 1023.8 1019.2
02 22.02 Ю 9-12
{15}
н/о н/о +8.6 +6.1 84 +4 +4 1024.6 1020.0
03 22.02 ЮЗ 12-16
{16}
н/о н/о +9.0 +6.5 84 +4 +4 1025.1 1020.5
04 22.02 Ю 10-14
{17}
н/о н/о +8.3 +5.8 84 +3 +3 1025.7 1021.1
05 22.02 Ю 10-12
{14}
н/о н/о +8.5 +5.8 83 +3 +3 1025.7 1021.1
06 22.02 Ю 10-13
{17}
н/о н/о +8.7 +5.5 80 +4 +4 1026.0 1021.4 +6.6 +9.2
07 22.02 Ю 10-12
{13}
н/о н/о +9.0 +5.6 79 +4 +4 1026.1 1021.5
08 22.02 Ю 8-12
{13}
н/о н/о +9.1 +5.3 77 +5 +5 1025.9 1021.3
09 22.02 Ю 14-19
{19}
н/о н/о +10.2 +5.6 73 +5 +5 1025.9 1021.3
10 22.02 Ю 16-21
{21}
н/о н/о +10.2 +4.6 68 +5 +5 1026.0 1021.4
11 22.02 Ю 10-14
{18}
н/о н/о +9.6 +5.0 73 +5 +5 1025.8 1021.2
12 22.02 ЮЗ 20-24
{24}
н/о н/о +8.6 +4.8 77 +2 +2 1025.1 1020.5
13 22.02 ЮЗ 19-24
{26}
н/о н/о +9.7 +4.1 68 +4 +4 1026.1 1021.5
14 22.02 ЮЗ 19-23
{26}
н/о н/о +9.2 +4.0 70 +3 +3 1027.2 1022.6
15 22.02 ЮЗ 17-22
{23}
н/о н/о +9.2 +4.4 72 +3 +3 1027.7 1023.1
16 22.02 ЮЗ 16-21
{22}
н/о н/о +9.0 +5.0 76 +3 +3 1028.5 1023.9
17 22.02 ЮЗ 15-21
{21}
н/о н/о +8.9 +5.1 77 +3 +3 1029.2 1024.6
18 22.02 ЮЗ 15-20
{26}
н/о н/о +8.8 +5.0 77 +3 +3 1029.5 1024.9 +8.5 +10.4
19 22.02 ЮЗ 14-18
{23}
н/о н/о +8.5 +5.3 80 +3 +3 1030.0 1025.4
20 22.02 Ю 12-15
{22}
н/о н/о +8.2 +5.3 82 +3 +3 1030.1 1025.5
21 22.02 ЮЗ 13-18
{18}
н/о н/о +8.6 +5.4 80 +3 +3 1030.2 1025.6
22 22.02 ЮЗ 14-19
{19}
н/о н/о +8.5 +5.4 81 +3 +3 1030.0 1025.4
23 22.02 ЮЗ 12-15
{19}
н/о н/о +8.5 +5.4 81 +3 +3 1030.1 1025.5
00 23.02 ЮЗ 11-16
{23}
н/о н/о +8.4 +5.5 82 +3 +3 1029.9 1025.3
01 23.02 Ю 12-16
{16}
н/о н/о +8.8 +5.2 78 +4 +4 1029.6 1025.0
02 23.02 Ю 12-15
{16}
н/о н/о +9.2 +5.2 76 +4 +4 1028.6 1024.0
03 23.02 Ю 10-13
{15}
н/о н/о +9.9 +5.3 73 +6 +6 1028.3 1023.7
04 23.02 ЮЗ 13 н/о н/о +10.6 +4.5 66 +6 +6 1027.5 1022.9
05 23.02 Ю 12-16
{17}
н/о н/о +10.9 +4.6 65 +7 +7 1026.8 1022.2
06 23.02 Ю 13-16
{18}
н/о н/о +10.7 +4.2 64 +6 +6 1026.2 1021.6 +8.0 +11.5

 

Местоположение метеостанции Маяк Svinoy (Норвегия): широта 62.33 долгота 5.27 высота над уровнем моря 38 м.

В архиве по умолчанию представлена погода на Маяке Svinoy за последнюю неделю. Архивные данные за месяц целиком и за предыдущие месяцы, начиная с января 2011 года, Вы можете получить, выбрав интересующий диапазон дат из раскрывающегося списка и нажав кнопку "Ввод!".


*Определитесь, кто Вы:
робот инопланетянин человек

Внимание! Время в таблицах - всемирное. Для получения местного времени необходимо прибавить поправку, которая равна 1 ч.

Смотрите также архив погоды в соседних городах и на ближайших метеорологических станциях:

Погода в Берген аэропорту (Норвегия) (5 км)
Погода в Фиске (Норвегия) (30 км)
Погода на Маяке Krakenes (Норвегия) (36 км)
Погода в Аэропорту Орста-Волда (Норвегия) (45 км)
Погода в Олесунне (Норвегия) (51 км)
Погода в Олесунн аэропорту (Норвегия) (51 км)
Погода в Сандан аэропорту (Норвегия) (70 км)
Погода в Стрын-Крокене (Норвегия) (81 км)
Погода в Флоро аэропорту (Норвегия) (84 км)
Погода в Рекдале (Норвегия) (84 км)

Пояснения к столбцам:

Ветер - указаны скорость ветра в м/с - средняя за 10 мин, порывы в срок и между сроками (в фигурных скобках) и направление, откуда дует ветер: С - северный, СВ - северо-восточный, В - восточный, ЮВ - юго-восточный, Ю - южный, ЮЗ - юго-западный, З - западный, СЗ - северо-западный.
Видимость - горизонтальная дальность видимости в метрах или километрах. При видимости от 1 до 10 км при отсутствии осадков обычно наблюдается дымка, при ухудшении видимости до 1 км и менее - туман. В сухую погоду видимость может ухудшаться дымом, пылью или мглою.
Явления - указаны атмосферные явления, наблюдавшиеся в срок или в последний час перед сроком; фигурными скобками обозначены явления, наблюдавшиеся между сроками (за 1-3 часа до срока); квадратными скобками обозначены град или гололедные отложения с указанием их диаметра в мм.
Облачность - указаны через наклонную черту общая и нижняя облачность в баллах и высота нижней границы облаков в метрах; квадратными скобками обозначены формы облаков: Ci - перистые, Cs - перисто-слоистые, Cc - перисто-кучевые, Ac - высококучевые, As - высокослоистые, Sc - слоисто-кучевые, Ns - слоисто-дождевые, Cu - кучевые, Cb - кучево-дождевые. Подробнее классификацию облаков см. в Атласе облаков (PDF).
T - Температура воздуха - температура, измеренная на высоте 2 м над землей.
Td - Температура точки росы - температура, при понижении до которой содержащийся в воздухе водяной пар достигнет насыщения.
f - Относительная влажность воздуха - влажноcть воздуха, измеренная на высоте 2 м над землей.
Te - Эффективная температура - температура, которую ощущает одетый по сезону человек в тени. Характеристика душности погоды. При расчете учитывается влияние влажности воздуха и скорости ветра на теплоощущения человека.
Tes - Эффективная температура на солнце - температура, которую ощущает человек, с поправкой на солнечный нагрев. Характеристика знойности погоды. Зависит от высоты солнца над горизонтом, облачности и скорости ветра. Ночью, в пасмурную погоду, а также при ветре 12 м/с и более поправка равна нулю.
P - Атмосферное давление - приведенное к уровню моря атмосферное давление.
Po - Атмосферное давление - измеренное на уровне метеостанции атмосферное давление.
Tmin - Минимальная температура - минимум температуры воздуха на высоте 2 м над землей.
Tmax - Максимальная температура - максимум температуры воздуха на высоте 2 м над землей.
R - Количество осадков - Количество выпавших осадков за период времени, мм. При наведении курсора мыши на число - период времени, за который выпало указанное количество осадков.
R24 - Количество осадков - Количество выпавших осадков за 24 часа, мм.
S - Снежный покров - Высота снежного покрова, см. При наведении курсора мыши на число - состояние снежного покрова и степень покрытия местности в баллах.